Hourly Data Report for October 02, 2016

All times are specified in Local Standard Time (LST). Add 1 hour to adjust for Daylight Saving Time where and when it is observed.

BAKER LAKE A
NUNAVUT

64°17'56.000" N
96°04'40.000" W
18.60 m
2300503
71926
YBK

Download Data

Hourly Data (October 2016)
Hourly Data Report for October 2, 2016
Temp Definition
°C
Dew Point Temp Definition
°C
Rel Hum Definition
%
Wind Dir Definition
10's deg

Wind Spd Definition
km/h
Visibility Definition
km
Stn Press Definition
kPa
Hmdx Definition


Wind Chill Definition


Weather Definition


TIME
00:00 Legend Double Dagger 1.2 -0.9 86 31 22 24.1 102.74     Cloudy
01:00 Legend Double Dagger 1.2 -1.0 85 32 18 24.1 102.75     LegendNANA
02:00 Legend Double Dagger 1.0 -1.1 86 29 13 24.1 102.81     LegendNANA
03:00 Legend Double Dagger 1.0 -1.1 86 31 14 24.1 102.79     Cloudy
04:00 Legend Double Dagger 0.8 -1.6 84 33 17 24.1 102.82     LegendNANA
05:00
06:00 Legend Double Dagger -0.3 -2.5 85 36 13 24.1 102.82   -4 Mostly Cloudy
07:00 Legend Double Dagger -0.9 -3.0 86 34 22 32.2 102.76   -7 LegendNANA
08:00 Legend Double Dagger -0.4 -3.1 82 33 16 24.1 102.75   -5 LegendNANA
09:00 Legend Double Dagger -0.4 -2.6 85 35 13 16.1 102.75   -5 Snow
10:00 Legend Double Dagger -0.5 -2.4 87 34 13 12.9 102.70   -5 Snow
11:00 Legend Double Dagger 0.2 -2.9 80 1 9 24.1 102.64     Snow
12:00 Legend Double Dagger -0.2 -2.9 82 1 8 32.2 102.58   -3 Snow
13:00 Legend Double Dagger 0.3 -3.3 77 5 6 32.2 102.49     LegendNANA
14:00 Legend Double Dagger 0.2 -2.2 84 7 10 32.2 102.39     LegendNANA
15:00 Legend Double Dagger 0.5 -2.7 79 8 9 32.2 102.31     Cloudy
16:00 Legend Double Dagger 0.2 -3.0 79 5 12 32.2 102.20     LegendNANA
17:00 Legend Double Dagger -0.4 -3.1 82 7 16 32.2 102.06   -5 LegendNANA
18:00 Legend Double Dagger -0.3 -3.2 81 7 18 32.2 101.93   -5 Cloudy
19:00 Legend Double Dagger 0.4 -2.2 83 14 21 24.1 101.81     LegendNANA
20:00 Legend Double Dagger 0.2 -2.4 83 11 22 24.1 101.67     LegendNANA
21:00 Legend Double Dagger 0.2 -2.0 85 12 24 24.1 101.54     Cloudy
22:00 Legend Double Dagger 0.0 -0.9 94 10 24 1.6 101.38   -6 Snow
23:00 Legend Double Dagger 0.2 -0.4 96 9 28 1.6 101.18     Snow

Notes on Data Quality.

Legend

  • E = Estimated
  • M = Missing
  • NA = Not Available
  • ‡ = Partner data that is not subject to review by the National Climate Archives
Date modified: